Home > Time Zones > World Clock > Weather > Chile > Talca > Past weeks

Flag for Chile Weather past 2 weeks in Talca, Chile

Now
41 °F

Clear.


Feels Like: 41 °F
Forecast: 27 / 53 °F
Wind: 2 mph from South

Location: Concepcion Airport

Current Time: Jul 23, 2014 at 11:08:12 PM

Latest Report: Jul 23, 2014 at 10:00 PM


Visibility: 10 mi

Pressure: 30.51 "Hg

Humidity: 87%

Dew point: 37 °F

Location of TalcaLocation

Historic Weather in Talca — Graph

°F

Talca temperature yesterday

Maximum temperature yesterday: 50 °F (at 12:00 PM)
Minimum temperature yesterday: 39 °F (at 4:00 AM)
Average temperature yesterday: 43 °F

Past Weeks' High & Low Weather Summary

 TemperatureHumidityPressure
High63 °F (Jul 18, 3:00 PM)100% (Jul 9, 11:00 PM)30.51 "Hg (Jul 9, 11:00 PM)
Low32 °F (Jul 23, 8:00 AM)55% (Jul 10, 1:00 PM)29.74 "Hg (Jul 14, 5:00 AM)
Average50 °F85%30.09 "Hg
* Reported Jul 8 10:00 PM — Jul 23 10:00 PM, Talca, Weather by CustomWeather, © 2014

Note: Actual official high and low records may vary slightly from our data, if they occured in-between our weather recording intervals... More about our weather records

Advertising

Talca weather history for previous 24 hours

 ConditionsComfort  
Time TempWeatherWind HumidityBarometerVisibility
10:00 PM
Jul 23
41 °FClear.2 mph87%30.51 "Hg10 mi
9:00 PM46 °FClear.No wind76%30.48 "Hg10 mi
8:00 PM46 °FClear.No wind76%30.45 "Hg10 mi
7:00 PM50 °FClear.12 mph71%30.45 "Hg10 mi
6:00 PM52 °FClear.9 mph67%30.42 "Hg10 mi
5:00 PM54 °FPassing clouds.12 mph63%30.42 "HgN/A
4:00 PM54 °FPassing clouds.13 mph63%30.42 "HgN/A
3:00 PM54 °FPassing clouds.12 mph63%30.42 "HgN/A
2:00 PM52 °FPassing clouds.7 mph58%30.42 "HgN/A
1:00 PM52 °FPassing clouds.5 mph62%30.45 "HgN/A
12:00 PM50 °FPassing clouds.6 mph62%30.45 "HgN/A
11:00 AM45 °FSunny.6 mph76%30.45 "Hg10 mi
10:00 AM39 °FSunny.3 mph81%30.42 "Hg10 mi
9:00 AM36 °FSunny.3 mph87%30.42 "Hg10 mi
8:00 AM32 °FSunny.5 mph87%30.39 "Hg10 mi
7:00 AM34 °FSunny.2 mph87%30.36 "Hg10 mi
6:00 AM34 °FClear.2 mph93%30.36 "Hg10 mi
5:00 AM34 °FClear.3 mph93%30.33 "Hg10 mi
4:00 AM36 °FClear.2 mph87%30.33 "Hg10 mi
2:00 AM36 °FClear.3 mph93%30.33 "Hg10 mi
1:00 AM37 °FClear.5 mph87%30.33 "Hg10 mi
12:00 AM39 °FClear.5 mph87%30.30 "Hg10 mi
11:00 PM
Jul 22
39 °FClear.3 mph87%30.30 "Hg10 mi
Weather by CustomWeather, © 2014

See weather overviewHow to use our weather pages